TimeCDT,TemperatureF,Dew PointF,Humidity,Sea Level PressureIn,VisibilityMPH,Wind Direction,Wind SpeedMPH,Gust SpeedMPH,PrecipitationIn,Events,Conditions,WindDirDegrees,DateUTC
12:53 AM,68.0,53.1,59,29.91,10.0,SSE,20.7,-,N/A,,Clear,160,2012-10-04 05:53:00
1:53 AM,66.9,53.1,61,29.92,10.0,South,17.3,-,N/A,,Clear,170,2012-10-04 06:53:00
2:53 AM,66.9,54.0,63,29.92,10.0,South,18.4,26.5,N/A,,Clear,170,2012-10-04 07:53:00
3:53 AM,66.0,54.0,65,29.91,10.0,South,17.3,-,N/A,,Clear,170,2012-10-04 08:53:00
4:53 AM,66.0,54.0,65,29.93,10.0,South,17.3,-,N/A,,Clear,170,2012-10-04 09:53:00
5:53 AM,64.0,55.0,73,29.99,10.0,South,8.1,-,N/A,,Clear,190,2012-10-04 10:53:00
6:53 AM,60.1,55.0,83,30.05,10.0,NNW,3.5,-,N/A,,Clear,330,2012-10-04 11:53:00
7:53 AM,57.9,55.0,90,30.06,10.0,East,5.8,-,N/A,,Clear,80,2012-10-04 12:53:00
8:53 AM,64.9,57.0,75,30.09,10.0,NNE,6.9,-,N/A,,Clear,30,2012-10-04 13:53:00
9:18 AM,64.4,57.2,77,30.14,10.0,NNE,10.4,-,N/A,,Mostly Cloudy,20,2012-10-04 14:18:00
9:53 AM,62.1,53.1,72,30.13,10.0,North,21.9,29.9,N/A,,Overcast,10,2012-10-04 14:53:00
10:53 AM,57.0,44.1,62,30.16,10.0,NNE,25.3,33.4,N/A,,Overcast,20,2012-10-04 15:53:00
11:53 AM,57.0,43.0,59,30.18,10.0,NNE,21.9,32.2,N/A,,Overcast,30,2012-10-04 16:53:00
12:53 PM,59.0,44.1,58,30.19,10.0,NNE,20.7,25.3,N/A,,Overcast,20,2012-10-04 17:53:00
1:53 PM,57.9,44.1,60,30.18,10.0,NNE,17.3,-,N/A,,Overcast,20,2012-10-04 18:53:00
2:53 PM,60.1,45.0,57,30.17,10.0,NNE,19.6,-,N/A,,Overcast,20,2012-10-04 19:53:00
3:53 PM,61.0,45.0,56,30.15,10.0,NE,17.3,-,N/A,,Overcast,40,2012-10-04 20:53:00
4:53 PM,60.8,44.6,55,30.18,10.0,NE,18.4,-,N/A,,Overcast,40,2012-10-04 21:53:00
5:53 PM,61.0,44.1,54,30.15,10.0,NNE,13.8,-,N/A,,Overcast,30,2012-10-04 22:53:00
6:53 PM,61.0,44.1,54,30.15,10.0,NE,12.7,-,N/A,,Overcast,40,2012-10-04 23:53:00
7:53 PM,60.1,44.1,55,30.15,10.0,NE,10.4,-,N/A,,Overcast,40,2012-10-05 00:53:00
8:04 PM,60.8,44.6,55,30.17,10.0,NE,11.5,-,N/A,,Overcast,40,2012-10-05 01:04:00
8:53 PM,60.1,45.0,57,30.15,10.0,NE,8.1,-,N/A,,Overcast,50,2012-10-05 01:53:00
9:14 PM,60.8,44.6,55,30.18,10.0,NE,9.2,-,N/A,,Overcast,40,2012-10-05 02:14:00
9:53 PM,59.0,46.0,62,30.17,10.0,NE,9.2,-,N/A,,Overcast,40,2012-10-05 02:53:00
10:53 PM,59.0,45.0,60,30.17,10.0,NE,9.2,-,N/A,,Overcast,40,2012-10-05 03:53:00
11:53 PM,57.9,44.1,60,30.17,10.0,NE,13.8,-,N/A,,Overcast,50,2012-10-05 04:53:00